Location: Colstrip
(45.8838°N, 106.6267°W)
Time: 23:07:17
(UTC+00:00)

Tiangong - Visible Passes

Search period start: 08 August 2022 00:00
Search period end: 18 August 2022 00:00
Orbit: 379 x 387 km, 41.5° (Epoch: 08 August)

Date Brightness Start Highest point End Pass type
(mag) Time Alt. Az. Time Alt. Az. Time Alt. Az.
08 Aug -0.4 09:48:48 23° SE 09:48:48 23° SE 09:50:20 10° ESE visible
08 Aug -0.5 11:21:26 10° WSW 11:23:45 19° SSW 11:26:05 10° SSE visible
09 Aug -0.8 10:24:09 24° S 10:24:09 24° S 10:26:25 10° SE visible
10 Aug -0.1 10:59:47 13° SSW 10:59:56 13° SSW 11:01:31 10° S visible
16 Aug -0.3 03:20:56 10° SSW 03:22:53 15° SSE 03:22:53 15° SSE visible
17 Aug -0.6 03:56:13 10° SW 03:58:02 23° SSW 03:58:02 23° SSW visible
